www.pogodaiklimat.ru

Погода и климат >> Архив погоды >> Россия >> Чукотка >> Чаун


ПОГОДА в Чауне

  • Прогноз погоды в Чауне
  • Монитор погоды в Чауне
  • Климат города

АРХИВ ПОГОДЫ в Чауне

Время (UTC), дата Ветер
(напр.,м/с)
 
Видим.   Явления Облачность Т
(С)
Тd
(С)
f
(%)
Тe
(С)
Тes
(С)
Комфортность P
(гПа)
Po
(гПа)
Тmin
(С)
Tmax
(С)
R
(мм)
R24
(мм)
S
(см)
21 18.04 Ю 5
{8}
50 км 3/0
[Ac lent Ci fib]
-6.4 -8.3 86 -14 -12 1025.2 1024.6 -10.1 53
00 19.04 ЮВ 5
{8}
50 км 3/0
[Ac lent Ci fib]
-2.5 -4.7 85 -9 -6 1026.7 1026.1
03 19.04 ЮВ 3
{6}
50 км 3/0
[Ci fib]
-0.7 -3.2 83 -5 -1 1027.9 1027.3
06 19.04 ЮВ 4
{5}
50 км ясно -4.3 -5.9 89 -11 -10 1028.3 1027.7
09 19.04 ЮВ 5
{7}
50 км 3/0
[Ac lent]
-9.0 -10.6 88 -17 -17 1028.7 1028.1 -0.6
12 19.04 В 5
{8}
50 км 3/0
[Ac lent]
-9.5 -10.7 91 -17 -17 1028.3 1027.7
15 19.04 ЮВ 9
{10}
50 км 4/0
[Ac lent]
-8.6 -10.1 89 -19 -19 1026.9 1026.3
18 19.04 ЮВ 7
{10}
50 км 4/0
[Ac lent Ci fib]
-7.8 -9.2 90 -17 -17 1026.1 1025.5
21 19.04 Ю 4
{9}
50 км 6/3
[St Ac lent]
-6.4 -8.0 88 -13 -12 1025.8 1025.2 -10.9 53
00 20.04 Ю 2
{6}
50 км 9/1 200 м
[St Ac trans Ci fib]
-1.9 -4.7 81 -6 -2 1025.6 1025.0
03 20.04 В 1
{3}
50 км 9/0
[Ac trans Ci fib]
-1.5 -4.2 82 -4 +1 1025.4 1024.8
06 20.04 СВ 1
{2}
50 км 10/0
[As trans]
-2.5 -3.8 91 -5 -4 1025.1 1024.5
09 20.04 СЗ 2
{3}
20 км 8/0
[Ac trans]
-6.8 -7.6 94 -11 -11 1025.5 1024.9 +0.7
12 20.04 ЮЗ 2
{3}
20 км 8/0
[Ac trans]
-8.3 -9.3 92 -13 -13 1025.5 1024.9
15 20.04 В 2
{3}
20 км 9/0
[Ac trans]
-6.7 -7.9 91 -11 -11 1025.2 1024.6
18 20.04 ЮВ 2
{3}
20 км 10/3 200 м
[St Ac As]
-4.9 -5.9 93 -9 -9 1024.6 1024.0
21 20.04 В 3
{4}
20 км 10/3 200 м
[St Ac und]
-3.1 -3.8 95 -9 -8 1024.4 1023.8 -10.4 53
00 21.04 ЮВ 4
{5}
50 км 6/3 200 м
[St Ac lent]
-0.5 -2.0 90 -6 -4 1024.0 1023.4
03 21.04 Ю 4
{6}
50 км 6/3 200 м
[St Ac lent]
-0.6 -2.1 90 -6 -5 1023.7 1023.1
06 21.04 ЮВ 4
{5}
50 км 9/3 200 м
[St Ac trans]
-1.2 -2.4 92 -7 -7 1023.9 1023.3
09 21.04 ЮВ 5
{6}
50 км 9/3 200 м
[St Ac trans]
-6.8 -7.6 94 -14 -14 1024.5 1023.9 -0.4
12 21.04 ЮВ 3
{6}
50 км 9/3 200 м
[St Ac trans]
-10.8 -11.6 94 -17 -17 1024.8 1024.2
15 21.04 ЮВ 4
{5}
50 км 9/0
[Ac trans]
-7.8 -8.8 93 -15 -15 1024.9 1024.3
18 21.04 ЮВ 3
{6}
50 км 6/0
[Ac lent]
-9.6 -10.4 94 -16 -15 1025.2 1024.6
21 21.04 ЮВ 4
{6}
50 км 4/0
[Ac lent Ci fib]
-6.8 -8.4 88 -13 -11 1025.4 1024.8 -11.0 53
00 22.04 ЮВ 3
{5}
50 км 3/0
[Ci fib]
-1.8 -4.2 84 -7 -1 1024.9 1024.3
03 22.04 С 1
{3}
50 км 3/0
[Ci fib]
+0.1 -3.0 80 -2 +5 1024.6 1024.0
06 22.04 СЗ 2
{3}
50 км 3/0
[Ci fib]
-2.9 -4.9 86 -7 -5 1024.5 1023.9
09 22.04 В 5
{5}
50 км 3/0
[Ac lent Ci fib]
-6.9 -7.8 93 -14 -14 1025.0 1024.4 +2.8
12 22.04 В 4
{7}
50 км 3/0
[Ac lent]
-9.0 -10.1 92 -16 -16 1025.0 1024.4
15 22.04 ЮВ 3
{6}
50 км 3/0
[Ac lent]
-9.3 -10.5 91 -15 -15 1025.1 1024.5
18 22.04 Ю 3
{4}
50 км 3/0
[Ac lent]
-15.9 -17.1 90 -23 -22 1025.5 1024.9
21 22.04 Ю 2
{4}
20 км ясно -10.2 -10.9 95 -15 -11 1025.9 1025.3 -16.7 53
00 23.04 ЮВ 2
{3}
50 км 3/0
[Ci fib]
-7.8 -9.2 90 -12 -6 1025.7 1025.1
03 23.04 штиль 0
{3}
4000 м дымка 6/0
[Ci fib]
-4.5 -6.1 89 -6 +1 1025.5 1024.9
06 23.04 Ю 2
{2}
4000 м дымка 9/3 200 м
[St Ci fib]
-7.2 -8.1 93 -12 -11 1025.1 1024.5
09 23.04 З 1
{2}
4000 м дымка 9/3 200 м
[St Ci fib]
-10.9 -11.7 94 -13 -13 1025.3 1024.7 -4.1
12 23.04 З 1
{4}
4000 м дымка 9/3 200 м
[St Ci fib]
-14.3 -15.6 90 -17 -17 1025.1 1024.5
15 23.04 З 1
{2}
4000 м дымка 9/3 200 м
[St Ac trans Ci fib]
-12.6 -13.6 92 -15 -15 1025.0 1024.4
18 23.04 штиль 0
{2}
4000 м дымка 9/3 200 м
[St Ac trans Ci fib]
-14.1 -15.4 90 -14 -14 1025.3 1024.7
21 23.04 штиль 0 4000 м дымка 9/1 200 м
[St Ac trans]
-11.6 -12.2 95 -12 -9 1025.5 1024.9 -15.8 53
00 24.04 штиль 0 20 км 9/1 200 м
[St Ac trans]
-7.4 -8.3 93 -8 -4 1024.8 1024.2
03 24.04 СЗ 3
{5}
50 км 6/0
[Ac lent]
-6.2 -7.4 91 -12 -9 1023.9 1023.3
06 24.04 СЗ 4
{5}
4000 м дымка {метель} 9/3 200 м
[St Ac lent]
-9.9 -10.7 94 -17 -17 1023.4 1022.8
09 24.04 СЗ 4
{5}
2000 м дымка 10/3 200 м
[St As trans]
-8.4 -9.0 95 -15 -15 1023.1 1022.5 -4.9
12 24.04 СЗ 4
{6}
2000 м дымка 10/3 200 м
[St As trans]
-8.9 -9.6 95 -16 -16 1022.5 1021.9
15 24.04 СЗ 3
{5}
2000 м дымка 10/3 200 м
[St As trans]
-8.6 -9.3 95 -15 -15 1022.0 1021.4
18 24.04 С 1
{6}
2000 м дымка 10/3 200 м
[St As trans]
-9.1 -9.8 95 -12 -11 1021.6 1021.0
21 24.04 СВ 1
{3}
2000 м дымка 10/3 200 м
[St As trans]
-12.3 -13.3 92 -15 -13 1021.3 1020.7 -12.3 53
00 25.04 штиль 0
{1}
50 км 8/3 200 м
[St Ac trans]
-7.9 -9.3 90 -9 -5 1020.5 1019.9
03 25.04 С 3
{5}
50 км 10/3 200 м
[St As trans]
-7.5 -8.8 90 -13 -12 1019.5 1018.9
06 25.04 С 3
{5}
20 км 10/3 200 м
[St As trans]
-7.7 -8.7 93 -14 -13 1019.1 1018.5
09 25.04 СЗ 2
{4}
20 км 8/4 200 м
[St Ac trans]
-10.4 -11.6 91 -15 -15 1018.9 1018.3 -7.1
12 25.04 штиль 0
{4}
2000 м дымка 8/4 200 м
[St Ac trans]
-13.9 -14.9 92 -14 -14 1018.7 1018.1
15 25.04 штиль 0 2000 м дымка 8/4 200 м
[St Ac trans]
-12.1 -13.1 92 -12 -12 1018.1 1017.5
18 25.04 С 1
{2}
2000 м дымка 8/4 200 м
[St Ac trans]
-12.1 -13.1 92 -14 -14 1017.9 1017.3

 

Местоположение метеостанции Чаун (Чукотка, Россия): широта 68.88 долгота 170.70 высота над уровнем моря 5 м.

В архиве по умолчанию представлена погода в Чауне за последнюю неделю. Архивные данные за месяц целиком и за предыдущие месяцы, начиная с января 2011 года, Вы можете получить, выбрав интересующий диапазон дат из раскрывающегося списка и нажав кнопку "Ввод!".

Внимание! Время в таблицах - всемирное. Для получения местного времени необходимо прибавить поправку, которая в Чауне равна 12 ч.

Смотрите также архив погоды в соседних городах и на ближайших метеорологических станциях:

Погода в 21 км (Чукотка, Россия) (84 км)
Погода в Комсомольской (Чукотка, Россия) (89 км)
Погода в Певеке (Чукотка, Россия) (93 км)
Погода в Майской (Чукотка, Россия) (117 км)
Погода в Валькаркае (Чукотка, Россия) (134 км)
Погода в Паляваам-Глубокой (Чукотка, Россия) (137 км)
Погода на Айон Острове (Чукотка, Россия) (160 км)
Погода в Раучуе (Чукотка, Россия) (180 км)
Погода в Билибино (Чукотка, Россия) (198 км)
Погода в Илирнее (Чукотка, Россия) (215 км)

Пояснения к столбцам:

Ветер - указаны скорость ветра в м/с - средняя за 10 мин, порывы в срок и между сроками (в фигурных скобках) и направление, откуда дует ветер: С - северный, СВ - северо-восточный, В - восточный, ЮВ - юго-восточный, Ю - южный, ЮЗ - юго-западный, З - западный, СЗ - северо-западный.
Видимость - горизонтальная дальность видимости в метрах или километрах. При видимости от 1 до 10 км при отсутствии осадков обычно наблюдается дымка, при ухудшении видимости до 1 км и менее - туман. В сухую погоду видимость может ухудшаться дымом, пылью или мглою.
Явления - указаны атмосферные явления, наблюдавшиеся в срок или в последний час перед сроком; фигурными скобками обозначены явления, наблюдавшиеся между сроками (за 1-3 часа до срока); квадратными скобками обозначены град или гололедные отложения с указанием их диаметра в мм.
Облачность - указаны через наклонную черту общая и нижняя облачность в баллах и высота нижней границы облаков в метрах; квадратными скобками обозначены формы облаков: Ci - перистые, Cs - перисто-слоистые, Cc - перисто-кучевые, Ac - высококучевые, As - высокослоистые, Sc - слоисто-кучевые, Ns - слоисто-дождевые, Cu - кучевые, Cb - кучево-дождевые. Подробнее классификацию облаков см. в Атласе облаков (PDF).
T - Температура воздуха - температура, измеренная на высоте 2 м над землей.
Td - Температура точки росы - температура, при понижении до которой содержащийся в воздухе водяной пар достигнет насыщения.
f - Относительная влажность воздуха - влажноcть воздуха, измеренная на высоте 2 м над землей.
Te - Эффективная температура - температура, которую ощущает одетый по сезону человек в тени. Характеристика душности погоды. При расчете учитывается влияние влажности воздуха и скорости ветра на теплоощущения человека.
Tes - Эффективная температура на солнце - температура, которую ощущает человек, с поправкой на солнечный нагрев. Характеристика знойности погоды. Зависит от высоты солнца над горизонтом, облачности и скорости ветра. Ночью, в пасмурную погоду, а также при ветре 12 м/с и более поправка равна нулю.
P - Атмосферное давление - приведенное к уровню моря атмосферное давление.
Po - Атмосферное давление - измеренное на уровне метеостанции атмосферное давление.
Tmin - Минимальная температура - минимум температуры воздуха на высоте 2 м над землей.
Tmax - Максимальная температура - максимум температуры воздуха на высоте 2 м над землей.
R - Количество осадков - Количество выпавших осадков за период времени, мм. При наведении курсора мыши на число - период времени, за который выпало указанное количество осадков.
R24 - Количество осадков - Количество выпавших осадков за 24 часа, мм.
S - Снежный покров - Высота снежного покрова, см. При наведении курсора мыши на число - состояние снежного покрова и степень покрытия местности в баллах.